Date,TemperatureHighF,TemperatureAvgF,TemperatureLowF,DewpointHighF,DewpointAvgF,DewpointLowF,HumidityHigh,HumidityAvg,HumidityLow,PressureMaxIn,PressureMinIn,WindSpeedMaxMPH,WindSpeedAvgMPH,GustSpeedMaxMPH,PrecipitationSumIn
2013-1-1,27.2,11.0,2.2,16.0,6.8,-1.0,90,83,60,30.76,30.46,6,1,7,0.00
2013-1-2,21.6,5.2,-4.2,99.9,37.0,-3.3,87,81,62,30.84,30.69,5,1,5,0.00
2013-1-3,20.2,2.1,-9.6,99.9,54.8,-3.9,86,79,60,31.00,30.84,5,1,5,0.00
2013-1-4,18.9,3.2,-7.0,99.9,50.4,-3.8,87,77,56,30.91,30.73,6,1,7,0.00
2013-1-5,21.9,2.6,-11.4,99.9,53.0,-4.1,86,77,54,30.99,30.83,6,1,6,0.00
2013-1-6,18.2,4.4,-7.5,99.9,44.7,-3.5,85,78,61,30.95,30.65,5,1,5,0.00
2013-1-7,22.6,6.5,-4.0,99.9,28.4,-4.3,87,79,61,30.66,30.51,10,1,10,0.00
2013-1-8,26.7,11.0,-0.6,99.9,10.2,-3.6,86,77,55,30.82,30.56,6,1,7,0.00
2013-1-9,33.6,13.3,1.3,18.8,7.3,-1.7,88,78,52,30.84,30.48,6,1,7,0.00
2013-1-10,46.1,18.5,3.6,28.9,12.2,0.2,90,78,42,30.49,29.74,28,2,31,0.01
2013-1-11,42.6,26.0,6.5,31.8,14.2,1.8,93,63,36,30.11,29.66,28,6,30,0.00
2013-1-12,20.9,4.8,-5.8,99.9,42.7,-5.0,85,74,52,30.46,30.11,6,1,7,0.00
2013-1-13,19.5,6.0,-4.7,99.9,27.5,-4.4,85,78,61,30.56,30.42,6,1,6,0.00
2013-1-14,16.9,-1.6,-13.9,99.9,61.5,-6.0,85,73,46,30.83,30.55,6,1,6,0.00
2013-1-15,19.4,0.8,-14.0,99.9,44.2,-49.7,84,71,46,31.04,30.83,8,1,8,0.00
2013-1-16,22.4,6.6,-5.5,99.9,36.4,-4.4,83,72,49,31.08,30.91,10,1,10,0.00
2013-1-17,24.1,8.2,-3.0,99.9,27.9,-3.9,85,75,57,31.07,30.90,6,1,6,0.00
2013-1-18,25.5,8.5,-4.4,99.9,32.1,-4.1,86,77,62,30.96,30.80,7,1,7,0.00
2013-1-19,30.0,10.4,-2.7,99.9,23.9,-4.1,86,77,58,30.97,30.80,8,1,8,0.00
2013-1-20,27.1,9.3,-2.3,99.9,25.3,-3.6,87,79,60,30.89,30.70,6,1,6,0.00
2013-1-21,29.0,10.9,-2.1,99.9,19.1,-3.6,86,77,57,30.88,30.71,6,1,9,0.00
2013-1-22,31.3,11.6,-1.0,99.9,11.6,-3.3,87,76,53,30.87,30.72,4,1,5,0.00
2013-1-23,31.1,12.6,-1.5,99.9,16.9,-3.7,86,77,53,30.88,30.74,4,1,6,0.00
2013-1-24,33.9,24.3,10.9,25.2,17.2,6.6,84,75,57,30.77,30.57,6,1,6,0.00
2013-1-25,35.7,31.4,29.5,30.2,27.3,25.3,89,85,77,30.60,30.43,3,0,4,0.00
2013-1-31,28.9,25.5,23.4,25.0,22.8,21.2,92,89,85,30.48,30.47,1,0,2,0.00
2013-2-1,44.1,28.7,17.6,29.2,22.9,15.5,93,80,53,30.56,30.42,6,1,8,0.00
2013-2-2,47.3,30.6,17.4,29.7,23.8,15.5,94,78,44,30.70,30.54,8,1,12,0.00
2013-2-3,38.9,30.2,24.3,29.6,26.0,22.6,95,85,63,30.54,30.27,5,0,7,0.00
2013-2-4,43.4,29.8,18.9,30.8,24.7,17.0,94,83,58,30.40,30.28,8,1,12,0.00
2013-2-5,48.3,32.7,20.7,30.0,25.2,19.0,94,76,46,30.36,30.12,6,1,12,0.01
2013-2-6,47.9,33.6,24.8,33.6,27.4,22.8,94,80,49,30.24,30.05,8,1,12,0.00
2013-2-7,51.0,33.8,20.6,31.3,25.6,18.9,94,75,41,30.37,30.14,10,2,15,0.00
2013-2-8,55.9,40.7,27.1,33.3,25.7,20.2,89,58,28,30.15,29.64,21,5,33,0.00
2013-2-9,42.2,35.3,30.6,32.3,28.7,23.9,95,78,54,29.84,29.63,10,2,15,0.02
2013-2-10,38.4,32.0,26.7,29.4,26.4,23.3,95,80,57,30.02,29.84,8,1,10,0.01
2013-2-11,36.3,28.8,19.4,28.1,23.5,15.1,93,81,53,30.30,30.01,10,3,12,0.03
2013-2-12,37.9,24.8,13.7,18.6,14.8,10.3,90,68,37,30.50,30.30,6,1,9,0.00
2013-2-13,42.0,28.8,18.1,25.9,19.8,15.3,89,71,43,30.51,30.34,8,1,13,0.00
2013-2-14,48.7,33.7,25.0,29.4,24.3,22.0,90,71,37,30.43,30.33,7,1,10,0.00
2013-2-15,49.5,32.4,19.2,25.7,21.5,17.0,93,69,29,30.59,30.43,8,1,10,0.00
2013-2-16,50.5,33.0,19.5,23.1,20.0,16.3,91,64,31,30.62,30.28,8,1,12,0.00
2013-2-17,52.6,35.7,21.3,25.6,21.1,12.5,92,60,27,30.28,29.80,15,3,19,0.00
2013-2-18,42.7,32.9,23.9,20.0,14.2,5.9,79,48,24,30.24,30.03,9,2,14,0.00
2013-2-19,52.2,34.6,19.4,20.6,13.2,0.4,85,47,12,30.21,29.74,18,3,21,0.00
2013-2-20,49.9,39.2,25.9,29.9,20.6,14.3,78,49,26,29.74,29.56,12,3,15,0.00
2013-2-21,48.3,38.6,33.6,29.8,26.6,20.2,81,64,35,29.95,29.66,12,2,16,0.00
2013-2-22,39.6,31.6,23.0,29.6,24.3,16.3,92,76,40,30.19,29.95,12,3,19,0.03
2013-2-23,42.3,28.0,18.1,28.9,21.0,15.2,94,78,35,30.19,29.88,16,3,17,0.00
2013-2-24,36.3,28.5,21.7,25.3,20.7,16.6,90,73,53,30.28,29.99,9,2,14,0.05
2013-2-25,44.0,30.2,16.5,23.0,17.3,13.2,88,62,31,30.40,30.07,9,2,14,0.00
2013-2-26,40.5,32.1,22.6,27.2,20.1,11.9,93,64,31,30.36,30.03,13,3,19,0.01
2013-2-27,44.3,29.5,16.4,20.7,15.6,10.4,89,61,26,30.54,30.36,13,2,15,0.00
2013-2-28,46.1,30.9,17.2,20.4,15.8,11.4,89,58,28,30.65,30.50,12,2,16,0.00
2013-3-1,55.3,37.7,24.2,27.7,23.5,18.9,83,60,30,30.64,30.48,8,1,13,0.00
2013-3-2,60.1,40.7,23.6,29.0,25.5,20.3,89,59,28,30.60,30.21,8,1,13,0.00
2013-3-3,57.6,43.1,29.5,40.1,30.2,25.0,85,64,34,30.21,29.85,8,1,13,0.02
2013-3-4,54.0,42.0,25.3,41.9,27.3,9.1,94,62,20,30.29,29.82,24,3,28,0.00
2013-3-5,52.8,36.4,22.8,19.0,15.3,10.8,77,46,19,30.46,30.21,11,3,16,0.00
2013-3-6,62.4,41.2,21.2,26.7,21.0,16.0,81,50,22,30.22,29.90,12,2,18,0.00
2013-3-7,68.8,47.8,28.5,28.9,20.9,9.5,78,42,10,30.01,29.80,15,2,16,0.00
2013-3-8,55.4,42.1,35.4,40.3,30.8,21.1,94,66,32,29.83,29.66,13,1,14,0.08
2013-3-9,44.1,37.7,31.2,36.9,32.1,21.6,96,81,52,30.21,29.64,16,4,17,0.05
2013-3-10,53.5,38.3,23.4,28.5,22.6,18.6,84,57,31,30.40,30.21,10,1,11,0.00
2013-3-11,56.4,40.1,25.5,32.5,27.3,22.6,91,64,32,30.33,30.13,9,1,12,0.00
2013-3-12,60.9,45.8,33.2,34.5,30.9,28.6,86,60,31,30.33,30.18,11,1,11,0.00
2013-3-13,67.1,47.5,29.4,33.3,28.6,21.8,90,56,19,30.42,30.27,8,1,10,0.00
2013-3-14,72.5,50.3,30.2,32.5,29.1,25.7,85,51,19,30.40,30.16,9,2,17,0.00
2013-3-15,71.6,51.6,34.0,33.7,30.6,27.4,82,50,20,30.19,29.88,5,1,8,0.00
2013-3-16,65.1,54.3,43.1,39.3,34.7,28.8,72,48,28,29.89,29.68,12,3,18,0.00
2013-3-17,61.4,49.9,39.6,36.4,23.2,5.2,81,44,12,29.87,29.61,29,6,31,0.00
2013-3-18,58.8,44.8,30.1,20.8,14.5,8.4,61,33,14,30.04,29.87,14,4,30,0.00
2013-3-19,60.2,46.3,33.8,22.5,12.0,-4.8,58,30,7,30.19,30.00,8,2,10,0.00
2013-3-20,55.9,43.8,28.2,24.6,14.8,10.1,56,33,17,30.21,29.82,8,2,12,0.00
2013-3-21,55.8,45.6,33.3,41.2,25.4,0.3,89,53,11,29.90,29.68,21,4,28,0.09
2013-3-22,54.9,39.2,26.5,24.9,15.6,-1.0,80,44,10,29.95,29.66,25,5,31,0.00
2013-3-23,40.6,32.5,23.6,16.0,6.9,1.3,50,35,20,30.27,29.94,18,5,26,0.00
2013-3-24,43.4,30.5,17.0,12.0,7.7,0.2,70,42,17,30.35,30.22,15,2,19,0.00
2013-3-25,50.3,35.2,22.9,9.3,5.8,0.0,55,32,13,30.42,30.22,11,3,17,0.00
2013-3-26,64.4,43.7,24.4,21.7,14.1,7.3,61,34,14,30.26,29.90,10,2,15,0.00
2013-3-27,69.9,51.7,30.3,26.4,19.2,9.3,67,33,10,30.03,29.87,16,3,21,0.00
2013-3-28,72.7,53.9,35.1,25.6,21.0,13.5,60,32,11,30.01,29.87,14,2,19,0.00
2013-3-29,72.6,55.3,39.0,34.1,27.5,23.2,58,37,16,30.08,29.94,19,3,23,0.00
2013-3-30,72.3,54.3,35.9,34.2,29.4,23.0,75,44,16,30.13,29.95,15,2,24,0.00
2013-3-31,73.2,54.4,33.5,32.0,22.7,-2.1,74,37,5,30.07,29.83,15,3,21,0.00
2013-4-1,70.5,54.6,42.6,46.0,29.8,15.2,68,40,12,29.90,29.67,18,3,28,0.01
2013-4-2,61.5,48.4,36.9,40.5,35.1,30.3,80,61,33,30.00,29.80,18,3,22,0.02
2013-4-3,69.5,51.1,33.8,37.5,30.1,20.5,87,52,16,30.16,30.00,18,2,18,0.00
2013-4-4,74.7,55.6,34.3,29.6,25.8,18.8,74,37,13,30.16,29.89,14,2,19,0.00
2013-4-5,73.8,58.1,45.2,39.9,29.5,21.2,56,37,15,29.91,29.64,20,4,25,0.00
2013-4-6,69.5,54.9,39.7,38.2,29.1,18.6,69,42,15,29.91,29.74,21,3,35,0.00
2013-4-7,71.5,55.2,40.1,38.3,29.4,14.8,79,46,13,29.85,29.53,26,3,26,0.00
2013-4-8,68.2,52.2,45.0,43.9,29.9,20.8,87,46,18,29.53,29.18,31,6,33,0.06
2013-4-9,44.7,37.0,27.3,34.5,24.0,11.7,85,61,38,30.15,29.37,18,5,19,0.00
2013-4-10,52.1,37.3,24.9,24.2,12.6,9.4,57,38,19,30.30,30.09,15,2,15,0.00
2013-4-11,58.4,44.8,34.3,36.1,29.4,23.3,69,55,39,30.10,29.84,11,1,11,0.00
2013-4-12,68.0,50.4,34.7,36.4,26.0,10.6,82,47,11,29.95,29.78,15,2,20,0.00
2013-4-13,73.0,51.4,30.5,41.3,26.1,18.7,71,42,16,29.84,29.32,30,4,38,0.01
2013-4-14,60.7,50.9,39.7,40.3,16.9,4.5,70,29,11,29.73,29.48,19,5,26,0.05
2013-4-15,49.5,43.7,39.8,39.5,33.4,16.1,92,71,27,29.68,29.43,12,3,15,0.36
2013-4-16,55.7,43.4,33.1,41.3,36.1,31.1,94,77,49,29.88,29.54,24,5,25,0.04
2013-4-17,41.9,34.4,28.5,31.5,23.0,13.4,95,67,36,30.26,29.82,17,2,17,0.19
2013-4-18,46.5,35.5,26.3,20.9,16.7,10.9,77,49,24,30.41,30.25,12,3,13,0.00
2013-4-19,58.8,42.7,24.2,30.7,21.9,16.7,87,49,21,30.42,30.06,14,2,16,0.00
2013-4-20,60.7,50.9,43.8,39.1,35.0,30.4,73,55,36,30.06,29.91,17,4,17,0.00
2013-4-21,68.2,51.5,33.2,39.2,29.4,11.4,92,52,13,30.16,29.89,18,2,19,0.00
2013-4-22,68.5,55.8,40.7,35.1,28.0,18.4,71,38,15,29.89,29.68,23,4,27,0.00
2013-4-23,56.1,47.1,37.5,27.2,13.5,-0.8,50,28,10,30.08,29.86,20,5,20,0.00
2013-4-24,64.3,49.9,36.9,23.4,15.3,7.4,55,28,11,30.20,30.05,12,3,13,0.00
2013-4-25,72.7,54.5,34.2,25.4,17.2,6.0,67,29,8,30.08,29.79,16,4,18,0.00
2013-4-26,75.8,57.6,36.5,26.3,18.1,5.7,61,27,8,30.10,29.90,12,2,14,0.00
2013-4-27,79.3,58.7,36.3,27.9,19.7,5.0,62,28,6,30.18,29.92,13,2,14,0.00
2013-4-28,82.3,61.7,37.8,30.2,24.2,13.7,65,30,8,30.01,29.71,17,2,19,0.00
2013-4-29,83.4,64.7,41.7,35.0,27.9,15.7,71,32,8,29.78,29.46,20,3,22,0.00
2013-4-30,84.4,63.4,45.1,42.4,31.9,20.9,73,37,10,29.78,29.37,30,4,30,0.01
2013-5-1,59.4,49.2,38.8,41.3,21.6,-2.4,91,45,8,30.42,29.78,19,4,21,0.08
2013-5-2,64.7,48.8,31.9,21.4,13.7,1.0,64,28,8,30.61,30.37,14,2,20,0.00
2013-5-3,72.0,53.3,30.7,27.0,17.5,6.5,72,31,8,30.37,29.87,13,3,15,0.00
2013-5-4,77.9,57.8,34.6,31.3,21.5,7.0,69,32,7,29.88,29.67,16,2,17,0.00
2013-5-5,79.4,66.4,51.2,33.0,22.7,6.1,43,22,7,29.76,29.65,15,4,17,0.00
2013-5-6,72.4,59.8,50.7,48.1,38.3,23.1,90,49,23,29.87,29.68,25,4,27,0.03
2013-5-7,62.1,53.0,44.6,49.4,45.2,42.2,93,76,49,29.93,29.84,16,3,16,0.12
2013-5-8,58.9,50.8,44.0,46.4,43.8,41.5,94,78,57,30.03,29.87,11,2,13,0.39
2013-5-9,70.0,57.7,48.3,46.6,42.5,35.4,88,60,36,30.05,29.91,14,0,17,0.01
2013-5-10,76.9,59.8,41.3,44.3,38.8,29.3,93,53,19,30.11,29.96,18,2,23,0.00
2013-5-11,80.3,63.8,45.1,41.7,34.5,24.0,81,41,14,30.21,30.02,11,2,13,0.00
2013-5-12,84.9,66.9,46.4,42.6,37.5,28.8,82,41,14,30.14,29.90,13,2,14,0.00
2013-5-13,89.3,69.6,48.0,44.2,38.1,26.0,80,39,11,30.05,29.80,14,2,15,0.00
2013-5-14,89.3,71.6,49.5,46.4,39.7,28.5,77,38,12,29.85,29.61,15,3,17,0.00
2013-5-15,86.8,73.7,62.9,50.0,42.8,35.3,51,34,17,29.71,29.48,18,4,21,0.01
2013-5-16,88.1,72.6,56.8,45.6,37.7,19.3,62,33,9,29.70,29.49,17,3,19,0.00
2013-5-17,83.7,71.0,51.4,40.3,26.6,12.3,58,24,8,29.66,29.51,12,3,17,0.00
2013-5-18,74.8,65.3,55.2,39.8,36.0,30.2,56,35,22,29.76,29.61,18,4,30,0.00
2013-5-19,69.4,57.5,41.8,41.1,35.1,26.4,83,48,20,29.84,29.75,17,3,28,0.00
2013-5-20,69.0,56.4,41.3,46.8,38.7,35.2,81,54,34,29.97,29.83,14,2,23,0.02
2013-5-21,77.7,62.5,43.6,43.1,36.6,23.1,84,44,14,29.98,29.68,11,2,15,0.00
2013-5-22,87.7,70.0,48.6,39.3,31.4,15.9,70,30,7,29.69,29.42,17,3,24,0.00
2013-5-23,89.5,77.6,63.6,35.5,14.8,-9.7,27,12,2,29.58,29.39,24,6,31,0.00
2013-5-24,86.2,71.8,54.2,34.4,18.8,4.1,40,16,5,29.74,29.50,16,3,23,0.00
2013-5-25,88.6,68.6,43.5,35.4,22.8,1.9,62,25,4,29.80,29.62,11,2,16,0.00
2013-5-26,88.2,68.2,45.8,32.9,23.3,1.9,57,25,4,29.78,29.58,14,2,20,0.00
2013-5-27,84.8,68.3,45.5,31.1,22.0,9.1,52,21,6,29.73,29.51,15,3,30,0.00
2013-5-28,80.1,64.3,50.2,48.0,34.0,20.7,77,37,11,29.60,29.36,25,4,31,0.00
2013-5-29,73.7,60.2,46.7,47.3,36.5,22.0,91,50,15,29.65,29.54,21,4,26,0.00
2013-5-30,78.3,63.5,44.3,35.4,27.7,18.7,69,31,11,29.77,29.62,33,5,33,0.00
2013-5-31,79.1,66.1,55.4,33.7,20.0,-3.5,42,20,4,29.95,29.75,21,5,30,0.00
2013-6-1,80.4,64.9,43.8,41.1,27.1,18.6,57,27,11,30.07,29.85,8,2,14,0.00
2013-6-2,91.6,70.9,46.0,37.3,27.8,13.2,67,27,6,29.91,29.54,12,2,16,0.00
2013-6-3,92.6,72.9,49.0,41.5,31.2,11.7,61,27,5,29.66,29.49,24,3,29,0.00
2013-6-4,92.7,73.9,50.3,40.6,32.3,19.4,62,27,7,29.74,29.55,28,4,46,0.00
2013-6-5,87.9,73.7,52.4,39.5,31.0,20.4,54,23,9,29.78,29.63,13,3,18,0.00
2013-6-6,94.2,72.9,48.9,41.4,34.7,20.1,70,31,8,29.83,29.64,9,2,13,0.00
2013-6-7,92.0,75.3,54.4,47.3,37.1,24.2,63,30,9,29.77,29.53,11,2,16,0.00
2013-6-8,96.1,78.1,56.3,45.2,37.4,24.1,60,28,8,29.65,29.50,11,2,19,0.00
2013-6-9,98.6,80.2,57.1,47.5,36.8,23.4,54,25,7,29.75,29.54,8,2,10,0.00
2013-6-10,101.8,79.8,56.5,48.6,33.8,7.3,61,27,4,29.67,29.46,12,3,21,0.00
2013-6-11,93.2,79.0,56.6,40.4,26.0,11.4,50,19,5,29.71,29.53,26,4,29,0.00
2013-6-12,95.8,78.6,55.2,41.3,25.5,0.6,54,20,3,29.79,29.66,24,4,24,0.00
2013-6-13,96.4,80.1,61.4,45.8,31.3,0.2,42,21,4,29.71,29.47,18,4,27,0.00
2013-6-14,92.8,74.9,51.8,38.4,19.6,-9.5,41,17,2,29.74,29.56,18,3,28,0.00
2013-6-15,94.0,74.9,50.0,37.3,28.2,17.5,59,22,7,29.78,29.65,25,3,37,0.00
2013-6-16,92.4,78.0,61.8,46.3,40.1,28.7,51,28,11,29.81,29.62,10,2,19,0.00
2013-6-17,94.0,79.6,65.2,44.3,35.5,14.8,41,24,6,29.78,29.59,20,3,20,0.00
2013-6-18,95.7,79.5,64.2,41.2,27.3,-9.0,35,19,2,29.67,29.44,14,4,21,0.00
2013-6-19,95.2,76.9,51.4,41.0,15.2,-20.4,48,17,1,29.55,29.39,21,4,27,0.00
2013-6-20,93.5,75.9,53.2,35.5,19.0,-2.1,45,16,3,29.63,29.48,18,4,29,0.00
2013-6-21,94.7,73.3,48.6,37.9,22.2,-8.0,62,22,2,29.71,29.51,17,3,27,0.00
2013-6-22,91.3,74.2,50.9,37.1,25.3,8.8,58,22,5,29.66,29.53,17,3,27,0.00
2013-6-23,92.4,74.7,51.6,45.3,30.5,14.4,59,24,6,29.69,29.44,10,2,13,0.00
2013-6-24,90.0,74.6,53.9,43.6,29.2,14.3,58,25,7,29.60,29.48,18,4,35,0.00
2013-6-25,91.8,77.2,57.5,45.7,37.5,28.7,53,27,11,29.73,29.58,17,3,21,0.00
2013-6-26,100.4,78.5,54.9,48.8,41.2,29.4,66,33,9,29.84,29.69,10,2,13,0.00
2013-6-27,105.8,83.3,58.3,53.4,39.9,25.9,59,28,7,29.91,29.72,10,2,13,0.00
2013-6-28,105.6,83.6,60.8,52.2,42.1,23.9,62,29,6,29.87,29.67,14,2,19,0.00
2013-6-29,103.8,84.1,65.3,52.8,45.4,33.6,64,30,9,29.77,29.58,14,2,24,0.00
2013-6-30,100.3,81.8,61.5,53.1,46.9,37.6,65,34,13,29.79,29.57,11,2,16,0.00
2013-7-1,100.6,84.3,64.5,52.8,43.8,29.5,61,28,9,29.83,29.63,12,2,15,0.00
2013-7-2,100.3,83.5,65.0,54.1,43.6,32.8,56,28,10,29.79,29.58,10,2,17,0.00
2013-7-3,102.3,81.9,60.4,48.7,42.4,31.2,61,29,9,29.74,29.53,13,3,17,0.00
2013-7-4,97.2,82.7,72.0,53.1,47.2,39.7,45,30,14,29.68,29.47,7,2,14,0.00
2013-7-5,99.1,84.0,67.5,55.0,47.5,39.4,59,32,14,29.59,29.40,17,4,28,0.00
2013-7-6,96.5,82.3,68.9,54.7,48.8,41.7,58,33,16,29.65,29.47,15,3,30,0.00
2013-7-7,96.8,80.1,63.1,59.6,51.3,42.3,71,41,17,29.77,29.55,25,3,32,0.03
2013-7-8,98.4,79.8,60.1,59.9,49.8,32.0,90,46,10,29.85,29.69,18,3,19,0.00
2013-7-9,101.4,83.4,61.2,52.9,45.8,32.7,67,32,10,29.86,29.66,11,2,23,0.00
2013-7-10,102.0,83.1,62.5,53.0,41.9,17.8,62,30,5,29.79,29.55,14,2,18,0.00
2013-7-11,97.7,78.0,62.4,63.2,48.8,37.8,87,40,16,29.74,29.49,13,2,24,0.09
2013-7-12,91.1,77.0,63.6,64.5,60.2,53.5,92,60,30,29.76,29.61,15,3,23,0.00
2013-7-13,93.8,80.3,67.2,65.5,58.2,52.6,79,50,26,29.82,29.63,16,2,19,0.00
2013-7-14,96.1,81.6,67.4,60.5,54.6,43.7,75,43,17,29.83,29.61,22,3,27,0.01
2013-7-15,100.7,82.0,65.4,62.4,53.3,42.2,73,42,14,29.73,29.49,15,3,31,0.06
2013-7-16,93.0,80.0,65.5,63.3,58.8,52.2,85,52,28,29.76,29.60,10,2,13,0.00
2013-7-17,93.0,80.1,65.6,66.0,60.8,53.3,94,56,27,29.87,29.71,17,3,27,0.40
2013-7-18,95.6,79.0,67.0,61.6,57.9,50.6,80,52,23,29.90,29.65,15,4,20,0.07
2013-7-19,97.9,79.9,65.0,61.9,56.8,44.1,86,51,18,29.85,29.60,11,3,16,0.00
2013-7-20,97.8,82.7,68.2,59.0,53.0,38.3,68,39,13,29.72,29.48,7,2,10,0.00
2013-7-21,101.5,81.2,60.3,54.7,47.7,28.0,73,38,8,29.67,29.50,6,1,9,0.00
2013-7-22,87.6,75.4,68.1,54.8,50.2,44.2,59,42,28,29.71,29.59,8,1,10,0.00
2013-7-31,94.0,92.0,88.7,48.3,46.5,43.8,24,21,19,29.90,29.86,7,-53,7,0.00